Flag for U.S.A. Weather past 2 weeks in Osage City, Kansas, U.S.A.

Now
76 °F

Passing clouds.


Feels Like: 77 °F
Forecast: 75 / 99 °F
Wind: 9 mph from South

Location: Forbes Field

Current Time: Aug 23, 2014 at 6:27:36 AM

Latest Report: Aug 23, 2014 at 5:53 AM


Visibility: 8 mi

Pressure: 29.84 "Hg

Humidity: 74%

Dew point: 67 °F

Location of Osage CityLocation

Historic Weather in Osage City — Graph

°F

Osage City temperature yesterday

Maximum temperature yesterday: 93 °F (at 1:53 PM)
Minimum temperature yesterday: 78 °F (at 6:53 AM)
Average temperature yesterday: 84 °F

Past Weeks' High & Low Weather Summary

 TemperatureHumidityPressure
High99 °F (Aug 21, 2:53 PM)100% (Aug 8, 7:59 AM)30.15 "Hg (Aug 8, 7:59 AM)
Low54 °F (Aug 13, 6:53 AM)29% (Aug 19, 5:53 PM)29.66 "Hg (Aug 19, 4:53 AM)
Average77 °F69%29.93 "Hg
* Reported Aug 8 5:04 AM — Aug 23 4:53 AM, Osage City, Weather by CustomWeather, © 2014

Note: Actual official high and low records may vary slightly from our data, if they occured in-between our weather recording intervals... More about our weather records

Advertising

Osage City weather history for previous 24 hours

 ConditionsComfort  
Time TempWeatherWind HumidityBarometerVisibility
4:53 AM
Aug 23
77 °FClear.8 mph71%29.83 "Hg9 mi
3:53 AM80 °FClear.10 mph67%29.84 "Hg9 mi
2:53 AM80 °FClear.10 mph71%29.84 "Hg10 mi
1:53 AM78 °FClear.7 mph76%29.85 "Hg10 mi
12:53 AM77 °FClear.7 mph82%29.86 "Hg10 mi
11:53 PM
Aug 22
79 °FClear.5 mph77%29.87 "Hg10 mi
10:53 PM79 °FClear.6 mph74%29.87 "Hg10 mi
9:53 PM80 °FClear.5 mph71%29.87 "Hg10 mi
8:53 PM81 °FSunny.6 mph67%29.86 "Hg10 mi
7:53 PM83 °FPassing clouds.No wind63%29.85 "Hg10 mi
6:53 PM86 °FSunny.9 mph53%29.85 "Hg10 mi
5:53 PM89 °FSunny.5 mph53%29.86 "Hg10 mi
4:53 PM91 °FSunny.7 mph47%29.86 "Hg10 mi
3:53 PM89 °FPassing clouds.6 mph50%29.87 "Hg10 mi
2:53 PM89 °FSunny.15 mph52%29.88 "Hg10 mi
1:53 PM93 °FSunny.10 mph47%29.88 "Hg9 mi
12:53 PM91 °FSunny.13 mph49%29.88 "Hg10 mi
11:53 AM92 °FSunny.10 mph47%29.88 "Hg10 mi
10:53 AM87 °FSunny.No wind53%29.91 "Hg10 mi
9:53 AM86 °FSunny.No wind55%29.91 "Hg10 mi
8:53 AM83 °FSunny.8 mph63%29.90 "Hg10 mi
7:53 AM80 °FSunny.14 mph69%29.86 "Hg10 mi
6:53 AM78 °FClear.10 mph76%29.85 "Hg10 mi
Weather by CustomWeather, © 2014

See weather overviewHow to use our weather pages